Weather History for Abilene, TX

Change the Weather History Date:

Monday, September 9, 2013

  Actual Average Record
Temperature  
Mean Temperature 81 °F 78 °F  
Max Temperature 92 °F 89 °F 99 °F (1984)
Min Temperature 69 °F 67 °F 46 °F (2004)
Degree Days  
Heating Degree Days 0 0  
Month to date heating degree days 0 0  
Since 1 July heating degree days 0 0  
Cooling Degree Days 16 13  
Month to date cooling degree days 172 126  
Year to date cooling degree days 2326 2071  
Growing Degree Days 30 (Base 50)    
Moisture  
Dew Point 62 °F    
Average Humidity 60    
Maximum Humidity 84    
Minimum Humidity 36    
Precipitation  
Precipitation 0.00 in 0.08 in 2.44 in (1900)
Month to date precipitation T 0.72  
Year to date precipitation 16.33 17.68  
Sea Level Pressure  
Sea Level Pressure 29.91 in    
Wind  
Wind Speed 10 mph (SSE)    
Max Wind Speed 20 mph    
Max Gust Speed 33 mph    
Visibility 10 miles    
Events      
T = Trace of Precipitation, MM = Missing Value Source: NWS Daily Summary

Daily Weather History Graph

Daily Weather History Graph

Search for Another Location

Airport:

Trip Planner

Search our weather history database for the weather conditions in past years. The results will help you decide how hot, cold, wet, or windy it might be!

Date:

Astronomy

Sep. 09, 2013 Rise Set
Actual Time 7:18 AM CDT 7:52 PM CDT
Civil Twilight 6:54 AM CDT 8:17 PM CDT
Nautical Twilight 6:25 AM CDT 8:46 PM CDT
Astronomical Twilight 5:55 AM CDT 9:15 PM CDT
Moon 11:24 AM CDT (9/9) 10:28 PM CDT (9/9)
Length of Visible Light 13h 22m
Length of Day
12h 33m
Waxing Crescent, 19% of the Moon is Illuminated
Sep 9
Waxing Crescent
Sep 12
First Quarter
Sep 19
Full
Sep 26
Last Quarter
Oct 4
New

Hourly Weather History & Observations

Time (CDT) Temp. Heat Index Dew Point Humidity Pressure Visibility Wind Dir Wind Speed Gust Speed Precip Events Conditions
12:52 AM 75.0 °F - 63.0 °F 66% 29.91 in 10.0 mi SSE 9.2 mph - N/A   Clear
1:52 AM 73.9 °F - 63.0 °F 68% 29.91 in 10.0 mi SSE 8.1 mph - N/A   Clear
2:52 AM 73.0 °F - 64.0 °F 73% 29.91 in 10.0 mi SSE 6.9 mph - N/A   Clear
3:52 AM 72.0 °F - 64.0 °F 76% 29.90 in 10.0 mi SSE 6.9 mph - N/A   Clear
4:52 AM 72.0 °F - 64.0 °F 76% 29.91 in 10.0 mi SE 3.5 mph - N/A   Clear
5:52 AM 69.1 °F - 64.0 °F 84% 29.92 in 10.0 mi SSE 6.9 mph - N/A   Clear
6:52 AM 70.0 °F - 64.0 °F 81% 29.92 in 10.0 mi SSE 6.9 mph - N/A   Clear
7:52 AM 70.0 °F - 64.9 °F 84% 29.94 in 10.0 mi South 5.8 mph - N/A   Clear
8:52 AM 75.0 °F - 66.0 °F 73% 29.95 in 10.0 mi South 9.2 mph - N/A   Clear
9:52 AM 77.0 °F - 66.0 °F 69% 29.96 in 10.0 mi South 10.4 mph - N/A   Scattered Clouds
10:52 AM 82.0 °F 83.8 °F 64.9 °F 56% 29.96 in 10.0 mi SSW 11.5 mph - N/A   Clear
11:52 AM 84.0 °F 84.5 °F 62.1 °F 47% 29.95 in 10.0 mi South 12.7 mph - N/A   Partly Cloudy
12:52 PM 87.1 °F 87.0 °F 61.0 °F 41% 29.94 in 10.0 mi SSE 13.8 mph 21.9 mph N/A   Scattered Clouds
1:52 PM 89.1 °F 88.8 °F 60.1 °F 38% 29.93 in 10.0 mi South 13.8 mph 20.7 mph N/A   Partly Cloudy
2:52 PM 89.1 °F 88.8 °F 60.1 °F 38% 29.91 in 10.0 mi SSE 15.0 mph 24.2 mph N/A   Partly Cloudy
3:52 PM 91.0 °F 90.5 °F 60.1 °F 35% 29.88 in 10.0 mi South 11.5 mph 19.6 mph N/A   Partly Cloudy
4:52 PM 91.0 °F 90.5 °F 60.1 °F 35% 29.87 in 10.0 mi SSE 17.3 mph 23.0 mph N/A   Scattered Clouds
5:52 PM 90.0 °F 89.7 °F 60.1 °F 37% 29.86 in 10.0 mi SSE 11.5 mph - N/A   Scattered Clouds
6:52 PM 88.0 °F 87.6 °F 60.1 °F 39% 29.86 in 10.0 mi SSE 11.5 mph 20.7 mph N/A   Clear
7:52 PM 86.0 °F 85.4 °F 59.0 °F 40% 29.87 in 10.0 mi SSE 9.2 mph - N/A   Clear
8:52 PM 84.0 °F 84.0 °F 60.1 °F 44% 29.88 in 10.0 mi SSE 8.1 mph - N/A   Scattered Clouds
9:52 PM 82.0 °F 82.4 °F 60.1 °F 47% 29.90 in 10.0 mi SSE 5.8 mph - N/A   Mostly Cloudy
10:52 PM 80.1 °F 81.2 °F 62.1 °F 54% 29.92 in 10.0 mi SSE 10.4 mph 19.6 mph N/A   Clear
11:52 PM 78.1 °F - 62.1 °F 58% 29.93 in 10.0 mi SSE 13.8 mph 20.7 mph N/A   Clear